• In Uzbekistan
  • List of Countries
  • For 7 days
  • Water Temperature
  • Satellite Maps
  • Weather Map
  • Weather Widgets
  • user-avatar
    Login

    Hourly Weather Salta

    Today, 24 March, Friday

    Time Temperature Precipitation Wind Pressure Humidity
    00:00 +17°C° 0 mm 0 mps 652 mmHg 93%
    01:00 +16°C° 0 mm 0 mps 652 mmHg 94%
    02:00 +16°C° 0 mm 0 mps 651 mmHg 94%
    03:00 +15°C° 0 mm 0 mps 651 mmHg 94%
    04:00 +15°C° 0 mm 0 mps 651 mmHg 94%
    05:00 +15°C° 0 mm 0 mps 651 mmHg 94%
    06:00 +17°C° 0 mm 0 mps 651 mmHg 89%
    07:00 +20°C° 0 mm 1 mps 652 mmHg 83%
    08:00 +22°C° 0 mm 1 mps 653 mmHg 78%
    09:00 +23°C° 0.1 mm 1 mps 653 mmHg 72%
    10:00 +24°C° 0.1 mm 2 mps 653 mmHg 66%
    11:00 +26°C° 0.1 mm 2 mps 653 mmHg 60%
    12:00 +26°C° 0.2 mm 3 mps 652 mmHg 59%
    13:00 +27°C° 0.2 mm 3 mps 652 mmHg 58%
    14:00 +27°C° 0.2 mm 3 mps 651 mmHg 57%
    15:00 +27°C° 0.3 mm 3 mps 651 mmHg 60%
    16:00 +26°C° 0.3 mm 3 mps 650 mmHg 62%
    17:00 +26°C° 0.3 mm 2 mps 650 mmHg 65%
    18:00 +24°C° 0.2 mm 2 mps 650 mmHg 72%
    19:00 +23°C° 0.2 mm 1 mps 650 mmHg 80%
    20:00 +21°C° 0.2 mm 1 mps 650 mmHg 87%
    21:00 +21°C° 0.1 mm 1 mps 650 mmHg 89%
    22:00 +18°C° 0.1 mm 0 mps 650 mmHg 90%
    23:00 +18°C° 0.1 mm 0 mps 651 mmHg 92%

    Tomorrow, 25 March, Saturday

    Time Temperature Precipitation Wind Pressure Humidity
    00:00 +17°C° 0 mm 0 mps 650 mmHg 92%
    01:00 +17°C° 0 mm 0 mps 650 mmHg 93%
    02:00 +17°C° 0 mm 0 mps 650 mmHg 93%
    03:00 +17°C° 0 mm 0 mps 649 mmHg 93%
    04:00 +17°C° 0 mm 0 mps 649 mmHg 93%
    05:00 +18°C° 0 mm 1 mps 649 mmHg 93%
    06:00 +20°C° 0 mm 1 mps 650 mmHg 89%
    07:00 +21°C° 0 mm 1 mps 650 mmHg 84%
    08:00 +22°C° 0 mm 1 mps 651 mmHg 80%
    09:00 +24°C° 0 mm 1 mps 651 mmHg 72%
    10:00 +25°C° 0 mm 1 mps 652 mmHg 63%
    11:00 +27°C° 0 mm 2 mps 652 mmHg 55%
    12:00 +28°C° 0.2 mm 2 mps 651 mmHg 54%
    13:00 +28°C° 0.2 mm 2 mps 650 mmHg 52%
    14:00 +29°C° 0.2 mm 3 mps 650 mmHg 51%
    15:00 +29°C° 0.5 mm 3 mps 649 mmHg 53%
    16:00 +28°C° 0.5 mm 3 mps 649 mmHg 56%
    17:00 +28°C° 0.5 mm 3 mps 648 mmHg 59%
    18:00 +26°C° 0.1 mm 2 mps 649 mmHg 68%
    19:00 +24°C° 0.1 mm 2 mps 649 mmHg 77%
    20:00 +22°C° 0.1 mm 1 mps 649 mmHg 86%
    21:00 +22°C° 0.1 mm 1 mps 650 mmHg 88%
    22:00 +21°C° 0.1 mm 1 mps 650 mmHg 90%
    23:00 +21°C° 0.1 mm 1 mps 650 mmHg 91%

    Day after tomorrow, 26 March, Sunday

    Time Temperature Precipitation Wind Pressure Humidity
    00:00 +20°C° 0.4 mm 1 mps 650 mmHg 91%
    01:00 +18°C° 0.4 mm 0 mps 649 mmHg 90%
    02:00 +17°C° 0.4 mm 0 mps 649 mmHg 90%
    03:00 +17°C° 0.2 mm 0 mps 649 mmHg 89%
    04:00 +19°C° 0.2 mm 1 mps 648 mmHg 88%
    05:00 +18°C° 0.2 mm 1 mps 648 mmHg 87%
    06:00 +20°C° 0 mm 1 mps 649 mmHg 81%
    07:00 +21°C° 0 mm 1 mps 650 mmHg 74%
    08:00 +23°C° 0 mm 1 mps 651 mmHg 68%
    09:00 +24°C° 0.1 mm 1 mps 651 mmHg 63%
    10:00 +26°C° 0.1 mm 2 mps 651 mmHg 58%
    11:00 +27°C° 0.1 mm 2 mps 652 mmHg 52%
    12:00 +28°C° 0.1 mm 2 mps 651 mmHg 50%
    13:00 +29°C° 0.1 mm 2 mps 651 mmHg 49%
    14:00 +30°C° 0.1 mm 3 mps 650 mmHg 47%
    15:00 +29°C° 0.3 mm 3 mps 649 mmHg 50%
    16:00 +29°C° 0.3 mm 3 mps 649 mmHg 54%
    17:00 +28°C° 0.3 mm 3 mps 648 mmHg 57%
    18:00 +26°C° 0.3 mm 2 mps 649 mmHg 67%
    19:00 +24°C° 0.3 mm 2 mps 649 mmHg 77%
    20:00 +21°C° 0.3 mm 2 mps 649 mmHg 88%
    21:00 +21°C° 0.1 mm 1 mps 650 mmHg 89%
    22:00 +21°C° 0.1 mm 1 mps 650 mmHg 90%
    23:00 +21°C° 0.1 mm 1 mps 651 mmHg 92%

    27 March, Monday

    Time Temperature Precipitation Wind Pressure Humidity
    00:00 +20°C° 0.2 mm 1 mps 650 mmHg 92%
    01:00 +20°C° 0.2 mm 1 mps 650 mmHg 92%
    02:00 +19°C° 0.2 mm 1 mps 650 mmHg 92%
    03:00 +19°C° 0.2 mm 1 mps 650 mmHg 91%
    04:00 +19°C° 0.2 mm 1 mps 649 mmHg 91%
    05:00 +18°C° 0.2 mm 1 mps 649 mmHg 91%
    06:00 +20°C° 0 mm 1 mps 650 mmHg 85%
    07:00 +22°C° 0 mm 1 mps 651 mmHg 79%
    08:00 +23°C° 0 mm 1 mps 652 mmHg 73%
    09:00 +25°C° 0.3 mm 1 mps 652 mmHg 66%
    10:00 +26°C° 0.3 mm 2 mps 653 mmHg 60%
    11:00 +28°C° 0.3 mm 2 mps 653 mmHg 53%
    12:00 +28°C° 0.4 mm 3 mps 652 mmHg 53%
    13:00 +29°C° 0.4 mm 3 mps 651 mmHg 53%
    14:00 +29°C° 0.4 mm 3 mps 651 mmHg 53%
    15:00 +28°C° 1 mm 3 mps 651 mmHg 56%
    16:00 +28°C° 1 mm 3 mps 650 mmHg 59%
    17:00 +27°C° 1 mm 3 mps 650 mmHg 62%
    18:00 +25°C° 1.4 mm 2 mps 650 mmHg 72%
    19:00 +23°C° 1.4 mm 2 mps 650 mmHg 81%
    20:00 +21°C° 1.4 mm 1 mps 651 mmHg 91%
    21:00 +21°C° 1.2 mm 1 mps 651 mmHg 91%
    22:00 +21°C° 1.2 mm 1 mps 652 mmHg 91%
    23:00 +21°C° 1.2 mm 1 mps 652 mmHg 91%

    28 March, Tuesday

    Time Temperature Precipitation Wind Pressure Humidity
    00:00 +21°C° 0.6 mm 1 mps 652 mmHg 91%
    01:00 +20°C° 0.6 mm 1 mps 652 mmHg 91%
    02:00 +20°C° 0.6 mm 1 mps 651 mmHg 91%
    03:00 +20°C° 0.1 mm 1 mps 651 mmHg 91%
    04:00 +20°C° 0.1 mm 1 mps 651 mmHg 91%
    05:00 +19°C° 0.1 mm 1 mps 651 mmHg 90%
    06:00 +20°C° 0 mm 1 mps 652 mmHg 86%
    07:00 +21°C° 0 mm 1 mps 652 mmHg 83%
    08:00 +20°C° 0 mm 0 mps 653 mmHg 79%
    09:00 +24°C° 0 mm 1 mps 653 mmHg 73%
    10:00 +25°C° 0 mm 2 mps 653 mmHg 68%
    11:00 +26°C° 0 mm 2 mps 653 mmHg 62%
    12:00 +27°C° 0.5 mm 2 mps 653 mmHg 61%
    13:00 +27°C° 0.5 mm 3 mps 652 mmHg 60%
    14:00 +28°C° 0.5 mm 3 mps 651 mmHg 58%
    15:00 +27°C° 0.4 mm 3 mps 651 mmHg 61%
    16:00 +27°C° 0.4 mm 3 mps 651 mmHg 63%
    17:00 +26°C° 0.4 mm 3 mps 650 mmHg 65%
    18:00 +25°C° 0.4 mm 3 mps 650 mmHg 73%
    19:00 +23°C° 0.4 mm 2 mps 651 mmHg 82%
    20:00 +21°C° 0.4 mm 1 mps 651 mmHg 90%
    21:00 +21°C° 0.8 mm 1 mps 651 mmHg 91%
    22:00 +21°C° 0.8 mm 1 mps 651 mmHg 91%
    23:00 +18°C° 0.8 mm 0 mps 651 mmHg 92%

    29 March, Wednesday

    Time Temperature Precipitation Wind Pressure Humidity
    00:00 +19°C° 1.6 mm 0 mps 651 mmHg 92%
    01:00 +19°C° 1.6 mm 0 mps 651 mmHg 92%
    02:00 +19°C° 1.6 mm 0 mps 650 mmHg 92%
    03:00 +19°C° 1.9 mm 0 mps 650 mmHg 92%
    04:00 +19°C° 1.9 mm 0 mps 650 mmHg 91%
    05:00 +19°C° 1.9 mm 0 mps 650 mmHg 91%
    06:00 +21°C° 1 mm 1 mps 650 mmHg 90%
    07:00 +21°C° 1 mm 1 mps 650 mmHg 88%
    08:00 +21°C° 1 mm 1 mps 651 mmHg 87%
    09:00 +23°C° 0.1 mm 2 mps 651 mmHg 81%
    10:00 +24°C° 0.1 mm 2 mps 650 mmHg 75%
    11:00 +25°C° 0.1 mm 3 mps 650 mmHg 69%
    12:00 +26°C° 0.1 mm 3 mps 649 mmHg 68%
    13:00 +26°C° 0.1 mm 3 mps 649 mmHg 66%
    14:00 +27°C° 0.1 mm 4 mps 648 mmHg 65%
    15:00 +26°C° 0.1 mm 3 mps 647 mmHg 68%
    16:00 +26°C° 0.1 mm 3 mps 647 mmHg 72%
    17:00 +25°C° 0.1 mm 3 mps 646 mmHg 75%
    18:00 +24°C° 0.1 mm 2 mps 647 mmHg 81%
    19:00 +23°C° 0.1 mm 1 mps 647 mmHg 86%
    20:00 +22°C° 0.1 mm 1 mps 648 mmHg 91%
    21:00 +22°C° 0.4 mm 1 mps 648 mmHg 91%
    22:00 +21°C° 0.4 mm 1 mps 648 mmHg 91%
    23:00 +19°C° 0.4 mm 0 mps 648 mmHg 92%
    Show more